TimeEST,TemperatureF,Dew PointF,Humidity,Sea Level PressureIn,VisibilityMPH,Wind Direction,Wind SpeedMPH,Gust SpeedMPH,PrecipitationIn,Events,Conditions,WindDirDegrees,DateUTC
12:00 AM,46.4,46.4,100,29.85,7.0,West,6.9,-,N/A,,Light Drizzle,270,2013-11-23 05:00:00
12:01 AM,46.4,46.4,100,29.85,7.0,West,9.2,-,N/A,,Light Drizzle,270,2013-11-23 05:01:00
12:03 AM,46.4,46.4,100,29.85,8.0,WNW,10.4,-,N/A,,Light Drizzle,300,2013-11-23 05:03:00
12:05 AM,46.4,46.4,100,29.85,9.0,WNW,9.2,-,N/A,,Overcast,300,2013-11-23 05:05:00
12:10 AM,46.4,46.4,100,29.85,10.0,WNW,13.8,20.7,N/A,,Overcast,300,2013-11-23 05:10:00
12:14 AM,48.2,46.4,93,29.85,10.0,WNW,13.8,20.7,N/A,,Overcast,300,2013-11-23 05:14:00
12:58 AM,48.0,42.6,82,29.87,10.0,WNW,10.4,-,0.00,,Overcast,300,2013-11-23 05:58:00
1:58 AM,45.1,34.7,67,29.88,10.0,NW,19.6,28.8,0.01,,Clear,310,2013-11-23 06:58:00
2:58 AM,43.7,33.4,67,29.88,10.0,NW,18.4,25.3,N/A,,Mostly Cloudy,320,2013-11-23 07:58:00
3:58 AM,42.3,31.5,66,29.91,10.0,NW,12.7,24.2,N/A,,Mostly Cloudy,310,2013-11-23 08:58:00
4:58 AM,39.6,29.8,68,29.94,10.0,WNW,12.7,-,N/A,,Scattered Clouds,300,2013-11-23 09:58:00
5:58 AM,38.5,28.0,66,29.96,10.0,WNW,11.5,20.7,N/A,,Scattered Clouds,290,2013-11-23 10:58:00
6:58 AM,36.5,26.8,68,29.96,10.0,West,13.8,-,N/A,,Clear,280,2013-11-23 11:58:00
7:58 AM,36.5,25.2,64,30.00,10.0,WNW,11.5,-,N/A,,Clear,290,2013-11-23 12:58:00
8:58 AM,38.3,22.8,54,29.99,10.0,WNW,17.3,-,N/A,,Clear,290,2013-11-23 13:58:00
9:58 AM,39.9,23.5,52,29.99,10.0,WNW,17.3,-,N/A,,Clear,300,2013-11-23 14:58:00
10:58 AM,40.8,19.8,43,29.96,10.0,NW,17.3,25.3,N/A,,Clear,310,2013-11-23 15:58:00
11:58 AM,42.6,19.9,40,29.94,10.0,WNW,15.0,-,N/A,,Clear,290,2013-11-23 16:58:00
12:12 PM,42.8,19.4,39,29.91,10.0,NW,15.0,18.4,N/A,,Clear,320,2013-11-23 17:12:00
12:58 PM,41.2,19.4,42,29.91,10.0,WNW,13.8,21.9,N/A,,Clear,290,2013-11-23 17:58:00
1:58 PM,40.5,20.3,45,29.91,10.0,NW,10.4,-,N/A,,Clear,320,2013-11-23 18:58:00
2:58 PM,39.6,19.2,44,29.88,10.0,West,9.2,18.4,N/A,,Clear,260,2013-11-23 19:58:00
3:58 PM,38.8,14.4,37,29.88,10.0,West,13.8,-,N/A,,Clear,280,2013-11-23 20:58:00
4:58 PM,34.9,16.2,46,29.87,10.0,WNW,3.5,-,N/A,,Partly Cloudy,290,2013-11-23 21:58:00
5:37 PM,35.6,17.6,48,29.84,10.0,West,13.8,21.9,N/A,Snow,Light Snow,280,2013-11-23 22:37:00
5:45 PM,37.4,19.4,48,29.84,10.0,West,17.3,34.5,N/A,,Mostly Cloudy,270,2013-11-23 22:45:00
5:58 PM,36.9,19.6,50,29.87,10.0,West,13.8,26.5,0.00,,Mostly Cloudy,280,2013-11-23 22:58:00
6:58 PM,34.0,21.2,60,29.88,10.0,WNW,24.2,31.1,N/A,Snow,Light Snow,300,2013-11-23 23:58:00
7:03 PM,33.8,24.8,70,29.86,2.5,WNW,19.6,25.3,N/A,Snow,Light Snow,290,2013-11-24 00:03:00
7:10 PM,32.0,28.4,87,29.85,7.0,West,10.4,25.3,N/A,Snow,Light Snow,260,2013-11-24 00:10:00
7:19 PM,32.0,24.8,75,29.85,10.0,West,12.7,20.7,N/A,,Scattered Clouds,280,2013-11-24 00:19:00
7:58 PM,32.5,19.8,59,29.88,10.0,WNW,24.2,31.1,0.00,,Partly Cloudy,290,2013-11-24 00:58:00
8:58 PM,31.6,16.5,54,29.88,10.0,NW,20.7,27.6,N/A,,Clear,310,2013-11-24 01:58:00
9:58 PM,30.2,12.6,48,29.89,10.0,WNW,20.7,34.5,N/A,,Clear,300,2013-11-24 02:58:00
10:38 PM,30.2,14.0,51,29.87,2.0,NW,28.8,36.8,N/A,Snow,Light Snow,310,2013-11-24 03:38:00
10:48 PM,26.6,21.2,80,29.87,4.0,NNW,16.1,39.1,N/A,Snow,Light Snow,330,2013-11-24 03:48:00
10:49 PM,26.6,21.2,80,29.87,4.0,NW,16.1,39.1,N/A,Snow,Light Snow,320,2013-11-24 03:49:00
10:58 PM,26.6,18.3,71,29.90,9.0,WNW,17.3,25.3,0.00,Snow,Light Snow,290,2013-11-24 03:58:00
11:00 PM,26.6,15.8,64,29.87,10.0,WNW,16.1,25.3,N/A,,Partly Cloudy,290,2013-11-24 04:00:00
11:10 PM,28.4,15.8,59,29.87,10.0,West,15.0,25.3,N/A,Snow,Light Snow,280,2013-11-24 04:10:00
11:23 PM,26.6,17.6,69,29.87,9.0,West,25.3,36.8,N/A,Snow,Light Snow,280,2013-11-24 04:23:00
11:36 PM,26.6,14.0,59,29.87,10.0,WNW,20.7,28.8,N/A,,Scattered Clouds,300,2013-11-24 04:36:00
11:39 PM,26.6,14.0,59,29.87,10.0,WNW,18.4,28.8,N/A,,Partly Cloudy,300,2013-11-24 04:39:00
11:58 PM,27.1,10.9,51,29.90,10.0,WNW,20.7,33.4,0.00,,Partly Cloudy,300,2013-11-24 04:58:00